SCP
0 0 0 0 0 0 0 0 0 0 0 0 0 0 0 0 0 0 0 0 0 0 0 0 0 0 0 0 0 0 0 0 0 0 0 0 0 0 0 0 0 0 0 0
0 0 0 0 0 0 0 0 0 0 0 0 0 0 0 0 0 0 0 0 0 0 0 0 0 0 0 0 0 0 0 0 0 0 0 0 0 0 0 0 0 0 0 0
0 0 0 -0 0 0 0 0 0 0 0 0 0 0 0 0 0 0 0 0 0 0 0 0 0 0 0 0 0 0 0 0 0 0 0 0 0 0 0 0 0 0 0 0
0 0 0 0 0 0 0 0 0 0 0 0 0 0 0 0 0 0 0 0 0 0 0 0 0 0 0 0 0 0 0 0 0 0 0 0 0 0 0 0 0 0 0 0
0 0 0 -0 0 0 0 0 0 0 0 0 0 0 0 0 0 0 0 0 0 0 0 0 0 0 0 0 0 0 0 0 0 0 0 0 0 0 0 0 0 0 0 0
0 0 0 0 0 0 0 -0 0 0 0 0 0 0 0 0 0 0 0 0 0 0 0 0 0 0 0 0 0 0 0 0 0 0 0 0 0 0 0 0 0 0 0 0
0 0 0 0 0 0 0 0 0 0 0 0 0 0 0 0 0 0 0 0 0 0 0 0 0 0 0 0 0 0 0 0 0 0 0 0 0 0 0 0 0 0 0 0
0 0 0 0 0 0 0 0 0 0 0 0 0 0 0 0 0 0 0 0 0 0 0 0 0 0 0 0 0 0 0 0 0 0 0 0 0 0 0 0 0 0 0 0
0 0 0 0 0 0 -0 0 0 0 0 0 0 0 0 0 0 0 0 0 0 0 0 0 0 0 0 0 0 0 0 0 0 0 0 0 0 0 0 0 0 0 0 0
0 0 0 0 0 0 -0 0 0 0 0 0 0 0 0 0 0 0 0 0 0 0 0 0 0 0 0 0 0 0 0 0 0 0 0 0 0 0 0 0 0 0 0 0
0 0 -0 -0 0 0 -0 -0 0 0 0 0 0 0 0 0 0 0 0 0 0 0 0 0 0 0 0 0 0 0 0 0 0 0 0 0 0 0 0 0 0 0 0 0
0 0 0 -0 0 0 0 -0 0 0 0 0 0 0 0 0 0 0 0 0 0 0 0 0 0 0 0 0 0 0 0 0 0 0 0 0 0 0 0 0 0 0 0 0
0 0 0 -0 0 0 0 0 -0 0 0 0 0 0 0 0 0 0 0 0 0 0 0 0 0 0 0 0 0 0 0 0 0 0 0 0 0 0 0 0 0 0 0 0
0 0 0 0 0 0 0 0 0 0 0 0 0 0 0 0 0 0 0 0 0 0 0 0 0 0 0 0 0 0 0 0 0 0 0 0 0 0 0 0 0 0 0 0
0 0 0 0 0 0 0 0 0 0 0 0 0 0 0 0 0 0 0 0 0 0 0 0 0 0 0 0 0 0 0 0 0 0 0 0 0 0 0 0 0 0 0 0
-0 0 -0 0 0 0 0 0 0 0 0 0 0 0 0 0 0 0 0 0 0 0 0 0 0 0 0 0 0 0 0 0 0 0 0 0 0 0 0 0 0 0 0 0
0 0 0 0 0 0 0 0 0 0 0 0 0 0 0 0 0 0 0 0 0 0 0 0 0 0 0 0 0 0 0 0 0 0 0 0 0 0 0 0 0 0 0 0
-0 0 0 -0 0 -0 0 0 0 0 0 0 0 0 0 0 0 0 0 0 0 0 0 0 0 0 0 0 0 0 0 0 0 0 0 0 0 0 0 0 0 0 0 0
-0 0 -0 0 0 -0 -0 0 0 0 0 0 0 0 0 0 0 0 0 0 0 0 0 0 0 0 0 0 0 0 0 0 0 0 0 0 0 0 0 0 0 0 0 0
0 0 0 0 0 0 0 0 0 0 0 0 0 0 0 0 0 0 0 0 0 0 0 0 0 0 0 0 0 0 0 0 0 0 0 0 0 0 0 0 0 0 0 0
0 -0 0 0 0 -0 0 -0 -0 -0 -0 -0 0 0 0 0 0 0 0 0 0 0 0 -0 -0 0 0 0 0 0 0 0 0 0 0 0 0 0 0 0 0 0 0 0
0 -0 0 0 0 -0 -0 -0 -0 -0 0 0 0 0 0 0 0 0 0 0 -0 0 0 0 0 0 0 0 0 0 0 0 0 0 0 0 0 0 0 0 0 0 0 0
-0 -0 0 0 0 0 0 0 0 0 0 0 0 0 0 0 0 0 0 0 0 0 0 0 0 -0 0 0 0 -0 -0 0 0 0 0 0 0 0 0 0 0 0 0 0
0 0 -0 0 0 0 0 0 0 0 0 0 0 0 -0 0 0 0 0 0 -0 -0 0 0 -0 0 0 0 -0 0 -0 0 0 0 0 0 0 0 0 0 0 0 0 0
0 0 0 -0 0 0 -0 0 0 0 0 0 0 0 0 0 0 0 0 0 0 0 0 -0 -0 -0 -0 -0 0 0 -0 0 0 0 0 0 0 0 0 0 0 0 0 0
0 0 0 0 0 0 0 0 0 0 0 0 0 0 0 0 0 0 0 0 0 -0 -0 0 0 -0 -0 -0 0 -0 -0 0 0 0 0 0 0 0 0 0 0 0 0 0
0 0 0 0 0 0 0 0 0 0 0 0 0 0 0 0 -0 -0 -0 0 0 0 0 0 -0 -0 -0 0 -0 0 -0 -0 -0 0 0 0 0 0 0 0 0 0 0 0
Wind_Speed_500mb
10 11 8 14 19 16 17 16 18 19 18 21 19 23 50 57 41 59 71 73 70 68 64 51 43 43 39 32 27 19 19 19 17 17 14 13 16 20 24 28 25 28 26 21
7 11 14 18 24 20 24 12 15 10 16 17 22 36 34 55 62 69 80 81 78 70 62 57 50 46 38 32 23 21 20 17 17 15 16 18 20 24 28 26 24 26 22 31
8 8 15 26 14 21 11 13 21 21 25 11 11 21 49 55 72 86 76 81 85 79 71 57 54 44 40 29 25 22 19 17 14 14 15 18 22 25 26 25 27 22 28 35
7 6 16 15 3 8 15 19 20 11 10 20 21 40 42 63 73 66 72 83 81 76 69 56 51 43 33 30 25 21 18 15 14 14 17 21 21 27 23 23 21 29 32 38
7 10 23 47 15 7 7 16 14 23 12 14 12 13 22 49 64 69 75 76 74 73 61 52 49 44 37 31 24 20 16 15 14 16 19 17 21 21 20 25 28 33 38 44
9 9 16 7 4 9 8 35 16 17 15 16 25 6 13 51 61 61 66 64 77 69 55 50 49 42 33 27 20 17 15 12 15 15 14 18 22 24 23 28 35 37 40 39
12 11 20 15 13 34 8 16 11 26 29 44 13 24 22 29 58 64 63 70 67 50 52 53 49 41 32 26 18 16 15 12 10 13 17 21 22 24 25 32 35 36 40 37
7 9 27 10 6 31 16 54 39 42 39 58 48 23 21 52 64 58 60 64 55 56 59 52 40 31 27 22 18 14 12 7 11 14 15 23 24 20 27 31 35 43 38 31
13 15 12 13 32 64 62 53 51 46 52 50 49 33 44 63 63 61 60 57 59 65 60 49 40 29 26 20 14 10 7 6 8 13 19 17 19 22 27 36 42 40 32 41
11 16 21 47 74 76 77 83 89 76 62 54 55 51 61 70 69 68 63 66 68 64 57 51 38 32 22 16 8 6 4 5 10 11 16 21 17 21 32 38 36 31 39 48
22 35 44 54 49 53 70 79 74 71 54 54 58 61 71 78 73 70 66 62 60 54 49 44 40 32 23 14 7 4 2 5 7 14 10 13 20 23 32 33 32 37 45 48
16 14 30 50 74 77 69 68 72 62 56 54 59 67 73 77 72 69 65 65 60 51 47 44 38 29 21 12 7 3 2 2 5 6 14 23 21 27 33 32 34 42 46 46
36 62 83 88 86 79 74 82 63 62 68 65 64 80 88 84 64 58 57 57 54 48 42 41 35 28 19 10 6 2 3 5 9 16 23 27 25 32 35 30 35 43 43 47
84 83 86 75 64 75 65 74 57 54 48 63 88 100 80 59 50 59 58 52 46 45 43 37 32 24 15 7 2 2 5 7 16 22 24 25 27 33 35 33 43 48 48 55
82 92 78 74 69 68 71 57 59 63 66 72 88 82 60 67 75 65 60 51 49 47 41 35 29 19 9 2 3 5 3 9 16 24 26 25 32 36 29 34 46 52 57 66
97 81 66 82 58 41 41 57 74 71 75 85 69 69 78 77 74 65 60 56 55 47 39 33 25 14 4 2 4 3 5 12 22 25 23 30 38 30 28 39 48 51 61 71
61 48 39 26 41 46 47 54 63 73 78 77 84 84 79 78 72 65 58 49 42 39 32 27 18 11 5 5 8 3 10 17 23 23 28 37 40 29 31 41 46 57 65 66
44 35 12 9 27 72 62 59 62 66 74 82 90 87 82 78 74 65 55 50 42 39 30 20 12 8 6 8 2 8 14 20 24 30 34 36 31 28 34 43 53 61 63 59
19 5 9 23 26 59 70 73 74 76 74 73 71 64 56 64 65 61 54 46 39 37 30 18 11 10 9 5 4 9 16 21 29 33 30 32 31 34 41 48 51 59 55 59
7 9 27 33 39 59 68 73 68 70 62 58 59 55 61 61 57 56 48 40 29 26 23 17 14 13 11 7 5 13 17 26 32 28 29 31 35 41 44 47 54 54 55 58
10 7 16 29 42 50 57 53 61 66 61 63 68 64 63 61 57 53 46 40 36 29 21 16 16 13 7 2 9 15 23 30 26 26 29 34 39 41 46 49 53 51 57 59
22 23 38 17 19 42 40 38 48 57 62 69 67 67 65 59 50 45 37 38 38 26 16 17 16 11 4 3 11 19 26 27 25 26 31 37 40 45 48 51 48 50 57 59
28 48 56 40 40 45 29 31 39 55 67 66 65 61 57 55 54 50 46 35 26 21 21 20 11 11 7 6 14 21 24 25 24 29 34 36 40 44 49 50 44 52 56 57
12 10 1 10 17 38 26 31 50 60 69 66 58 57 57 53 43 34 32 32 23 22 21 14 16 13 7 9 17 21 25 24 26 31 32 35 39 45 49 48 46 52 55 56
12 24 15 23 23 15 27 41 55 56 62 59 54 49 43 39 36 40 32 27 26 23 19 19 18 12 4 12 19 22 23 24 28 30 32 36 41 47 49 49 47 53 53 55
8 14 31 31 27 29 34 38 50 52 55 58 55 51 47 41 38 38 31 27 25 21 24 27 17 7 10 16 21 21 24 26 28 30 33 36 41 46 49 47 46 52 51 51
24 21 21 25 23 22 23 29 38 52 54 59 56 50 46 38 38 33 27 25 27 28 28 22 13 11 13 17 19 19 24 27 30 32 34 37 41 46 46 44 44 49 48 49
Wind_Direction_500mb
262 260 267 244 267 261 205 213 204 253 210 251 222 213 215 217 202 198 203 202 200 198 197 196 203 211 212 217 221 230 254 261 276 275 273 287 305 313 317 316 310 314 318 313
266 268 249 261 260 262 239 227 251 239 257 236 264 224 206 208 199 200 206 205 201 201 204 206 210 208 210 216 216 237 251 260 267 264 276 290 302 310 316 316 310 309 311 317
263 303 339 286 209 218 243 209 211 229 234 167 232 207 218 212 206 209 203 201 198 200 207 210 207 205 209 208 219 237 245 254 257 270 286 297 308 312 315 312 307 302 310 317
256 332 241 263 207 238 224 251 230 263 189 197 224 226 237 227 222 208 205 206 201 201 208 208 202 199 198 207 221 235 243 245 260 271 292 307 310 314 309 313 306 307 310 315
207 209 282 283 286 258 196 274 231 226 224 207 203 184 244 230 228 225 215 209 197 206 203 203 196 190 195 206 220 236 234 253 261 281 302 309 312 319 309 304 304 310 311 313
151 194 239 355 104 7 243 272 180 190 190 167 151 151 246 223 213 207 207 202 194 198 198 196 189 190 202 208 224 228 237 241 274 291 305 310 309 313 311 313 316 316 318 318
228 248 276 211 292 318 259 279 234 208 212 170 197 217 272 222 199 197 197 192 191 190 191 185 188 190 199 213 207 219 231 266 276 294 305 307 309 309 310 316 320 322 320 321
155 199 261 215 155 196 239 268 283 292 242 208 210 227 187 183 179 186 180 175 174 182 176 177 182 197 199 198 197 219 241 260 290 301 308 310 311 311 318 319 324 325 325 332
196 225 258 320 311 297 303 302 288 275 273 235 209 178 176 171 174 170 167 168 171 172 169 175 184 186 193 190 198 218 238 283 300 311 309 305 314 313 323 327 331 333 338 333
14 279 304 316 307 300 293 289 289 283 262 235 207 187 175 171 166 163 166 167 165 169 172 172 172 166 184 174 177 191 262 295 315 318 317 317 311 324 333 337 340 340 334 332
259 285 298 295 288 292 293 293 283 274 248 222 208 185 178 166 163 164 162 162 167 172 171 162 164 162 160 156 150 158 283 321 328 321 347 344 333 339 341 345 344 339 336 336
254 297 290 291 292 291 297 288 277 248 224 209 198 174 164 157 155 154 161 164 162 164 161 156 155 152 149 139 144 149 177 334 337 335 330 339 340 343 343 343 344 342 336 336
271 287 289 292 286 281 289 276 270 242 225 184 176 164 155 147 153 164 164 165 158 155 152 149 143 144 137 126 141 137 222 317 309 320 330 336 334 334 340 340 344 340 338 338
278 286 284 278 260 261 279 289 264 222 190 173 168 157 153 150 156 161 160 160 147 147 144 139 136 134 120 123 133 304 284 320 329 329 333 337 337 337 337 334 333 336 337 335
298 301 262 270 269 264 271 268 201 177 170 164 165 157 161 160 151 155 151 145 142 142 139 134 132 130 121 65 318 312 310 323 332 339 338 342 341 340 333 325 328 330 331 333
315 306 263 273 242 249 223 183 165 155 160 161 163 160 153 146 141 143 142 144 148 145 135 128 130 127 97 17 341 126 348 340 335 342 342 340 341 337 324 327 330 332 333 336
290 288 299 161 170 155 148 148 150 155 158 160 149 145 145 140 141 144 143 141 136 125 126 127 131 121 84 82 112 42 351 348 346 349 343 341 343 338 328 331 334 333 334 340
304 298 315 34 122 130 128 128 133 138 142 147 144 143 145 142 142 141 143 137 134 131 139 131 129 108 103 139 65 351 354 349 358 356 348 347 352 343 339 337 337 338 343 350
344 348 95 102 121 128 131 127 125 128 136 143 134 132 137 139 142 141 148 141 143 144 141 141 132 109 104 129 334 346 347 359 358 353 354 356 355 349 344 343 347 350 358 354
338 105 117 106 121 133 124 131 122 117 119 131 147 157 150 148 147 151 145 137 130 137 140 133 113 111 108 95 6 343 358 0 355 1 357 354 354 352 352 355 355 2 359 359
15 335 155 124 127 127 130 143 156 156 166 168 163 161 157 154 154 148 138 137 147 148 135 116 122 118 115 359 352 0 357 3 4 1 354 356 357 359 360 358 1 5 360 0
59 83 166 132 144 160 162 171 164 172 172 168 164 158 156 152 144 142 152 153 147 141 129 130 130 128 114 359 2 357 2 12 1 355 357 1 2 3 1 360 6 4 1 3
77 96 101 104 94 103 129 158 168 177 167 162 158 154 149 152 155 151 154 151 152 143 131 127 130 141 131 48 0 8 19 11 358 1 4 6 7 5 2 4 6 5 5 7
131 46 153 192 193 198 209 169 169 171 166 159 154 152 148 147 149 152 147 145 149 141 141 132 132 123 102 18 18 22 23 8 5 8 8 11 9 7 5 10 11 9 8 10
67 160 161 143 141 166 174 168 171 163 159 154 152 150 148 149 148 146 148 143 147 149 146 140 135 130 55 33 34 27 20 12 15 13 13 14 12 10 12 15 12 10 12 14
76 95 162 165 172 173 163 166 176 168 162 163 162 162 154 152 151 149 147 141 137 139 149 140 135 117 59 43 38 24 19 15 18 17 15 14 14 14 14 17 14 12 16 20
97 101 119 137 144 151 158 172 175 168 169 171 163 163 162 155 157 152 147 145 148 146 139 134 129 93 57 44 35 20 19 15 20 19 14 12 13 15 15 19 16 15 21 26
Wind_Speed_850mb
10 11 8 14 19 16 17 16 18 19 18 21 19 23 50 57 41 59 71 73 70 68 64 51 43 43 39 32 27 19 19 19 17 17 14 13 16 20 24 28 25 28 26 21
7 11 14 18 24 20 24 12 15 10 16 17 22 36 34 55 62 69 80 81 78 70 62 57 50 46 38 32 23 21 20 17 17 15 16 18 20 24 28 26 24 26 22 31
8 8 15 26 14 21 11 13 21 21 25 11 11 21 49 55 72 86 76 81 85 79 71 57 54 44 40 29 25 22 19 17 14 14 15 18 22 25 26 25 27 22 28 35
7 6 16 15 3 8 15 19 20 11 10 20 21 40 42 63 73 66 72 83 81 76 69 56 51 43 33 30 25 21 18 15 14 14 17 21 21 27 23 23 21 29 32 38
7 10 23 47 15 7 7 16 14 23 12 14 12 13 22 49 64 69 75 76 74 73 61 52 49 44 37 31 24 20 16 15 14 16 19 17 21 21 20 25 28 33 38 44
9 9 16 7 4 9 8 35 16 17 15 16 25 6 13 51 61 61 66 64 77 69 55 50 49 42 33 27 20 17 15 12 15 15 14 18 22 24 23 28 35 37 40 39
12 11 20 15 13 34 8 16 11 26 29 44 13 24 22 29 58 64 63 70 67 50 52 53 49 41 32 26 18 16 15 12 10 13 17 21 22 24 25 32 35 36 40 37
7 9 27 10 6 31 16 54 39 42 39 58 48 23 21 52 64 58 60 64 55 56 59 52 40 31 27 22 18 14 12 7 11 14 15 23 24 20 27 31 35 43 38 31
13 15 12 13 32 64 62 53 51 46 52 50 49 33 44 63 63 61 60 57 59 65 60 49 40 29 26 20 14 10 7 6 8 13 19 17 19 22 27 36 42 40 32 41
11 16 21 47 74 76 77 83 89 76 62 54 55 51 61 70 69 68 63 66 68 64 57 51 38 32 22 16 8 6 4 5 10 11 16 21 17 21 32 38 36 31 39 48
22 35 44 54 49 53 70 79 74 71 54 54 58 61 71 78 73 70 66 62 60 54 49 44 40 32 23 14 7 4 2 5 7 14 10 13 20 23 32 33 32 37 45 48
16 14 30 50 74 77 69 68 72 62 56 54 59 67 73 77 72 69 65 65 60 51 47 44 38 29 21 12 7 3 2 2 5 6 14 23 21 27 33 32 34 42 46 46
36 62 83 88 86 79 74 82 63 62 68 65 64 80 88 84 64 58 57 57 54 48 42 41 35 28 19 10 6 2 3 5 9 16 23 27 25 32 35 30 35 43 43 47
84 83 86 75 64 75 65 74 57 54 48 63 88 100 80 59 50 59 58 52 46 45 43 37 32 24 15 7 2 2 5 7 16 22 24 25 27 33 35 33 43 48 48 55
82 92 78 74 69 68 71 57 59 63 66 72 88 82 60 67 75 65 60 51 49 47 41 35 29 19 9 2 3 5 3 9 16 24 26 25 32 36 29 34 46 52 57 66
97 81 66 82 58 41 41 57 74 71 75 85 69 69 78 77 74 65 60 56 55 47 39 33 25 14 4 2 4 3 5 12 22 25 23 30 38 30 28 39 48 51 61 71
61 48 39 26 41 46 47 54 63 73 78 77 84 84 79 78 72 65 58 49 42 39 32 27 18 11 5 5 8 3 10 17 23 23 28 37 40 29 31 41 46 57 65 66
44 35 12 9 27 72 62 59 62 66 74 82 90 87 82 78 74 65 55 50 42 39 30 20 12 8 6 8 2 8 14 20 24 30 34 36 31 28 34 43 53 61 63 59
19 5 9 23 26 59 70 73 74 76 74 73 71 64 56 64 65 61 54 46 39 37 30 18 11 10 9 5 4 9 16 21 29 33 30 32 31 34 41 48 51 59 55 59
7 9 27 33 39 59 68 73 68 70 62 58 59 55 61 61 57 56 48 40 29 26 23 17 14 13 11 7 5 13 17 26 32 28 29 31 35 41 44 47 54 54 55 58
10 7 16 29 42 50 57 53 61 66 61 63 68 64 63 61 57 53 46 40 36 29 21 16 16 13 7 2 9 15 23 30 26 26 29 34 39 41 46 49 53 51 57 59
22 23 38 17 19 42 40 38 48 57 62 69 67 67 65 59 50 45 37 38 38 26 16 17 16 11 4 3 11 19 26 27 25 26 31 37 40 45 48 51 48 50 57 59
28 48 56 40 40 45 29 31 39 55 67 66 65 61 57 55 54 50 46 35 26 21 21 20 11 11 7 6 14 21 24 25 24 29 34 36 40 44 49 50 44 52 56 57
12 10 1 10 17 38 26 31 50 60 69 66 58 57 57 53 43 34 32 32 23 22 21 14 16 13 7 9 17 21 25 24 26 31 32 35 39 45 49 48 46 52 55 56
12 24 15 23 23 15 27 41 55 56 62 59 54 49 43 39 36 40 32 27 26 23 19 19 18 12 4 12 19 22 23 24 28 30 32 36 41 47 49 49 47 53 53 55
8 14 31 31 27 29 34 38 50 52 55 58 55 51 47 41 38 38 31 27 25 21 24 27 17 7 10 16 21 21 24 26 28 30 33 36 41 46 49 47 46 52 51 51
24 21 21 25 23 22 23 29 38 52 54 59 56 50 46 38 38 33 27 25 27 28 28 22 13 11 13 17 19 19 24 27 30 32 34 37 41 46 46 44 44 49 48 49
Wind_Direction_850mb
262 260 267 244 267 261 205 213 204 253 210 251 222 213 215 217 202 198 203 202 200 198 197 196 203 211 212 217 221 230 254 261 276 275 273 287 305 313 317 316 310 314 318 313
266 268 249 261 260 262 239 227 251 239 257 236 264 224 206 208 199 200 206 205 201 201 204 206 210 208 210 216 216 237 251 260 267 264 276 290 302 310 316 316 310 309 311 317
263 303 339 286 209 218 243 209 211 229 234 167 232 207 218 212 206 209 203 201 198 200 207 210 207 205 209 208 219 237 245 254 257 270 286 297 308 312 315 312 307 302 310 317
256 332 241 263 207 238 224 251 230 263 189 197 224 226 237 227 222 208 205 206 201 201 208 208 202 199 198 207 221 235 243 245 260 271 292 307 310 314 309 313 306 307 310 315
207 209 282 283 286 258 196 274 231 226 224 207 203 184 244 230 228 225 215 209 197 206 203 203 196 190 195 206 220 236 234 253 261 281 302 309 312 319 309 304 304 310 311 313
151 194 239 355 104 7 243 272 180 190 190 167 151 151 246 223 213 207 207 202 194 198 198 196 189 190 202 208 224 228 237 241 274 291 305 310 309 313 311 313 316 316 318 318
228 248 276 211 292 318 259 279 234 208 212 170 197 217 272 222 199 197 197 192 191 190 191 185 188 190 199 213 207 219 231 266 276 294 305 307 309 309 310 316 320 322 320 321
155 199 261 215 155 196 239 268 283 292 242 208 210 227 187 183 179 186 180 175 174 182 176 177 182 197 199 198 197 219 241 260 290 301 308 310 311 311 318 319 324 325 325 332
196 225 258 320 311 297 303 302 288 275 273 235 209 178 176 171 174 170 167 168 171 172 169 175 184 186 193 190 198 218 238 283 300 311 309 305 314 313 323 327 331 333 338 333
14 279 304 316 307 300 293 289 289 283 262 235 207 187 175 171 166 163 166 167 165 169 172 172 172 166 184 174 177 191 262 295 315 318 317 317 311 324 333 337 340 340 334 332
259 285 298 295 288 292 293 293 283 274 248 222 208 185 178 166 163 164 162 162 167 172 171 162 164 162 160 156 150 158 283 321 328 321 347 344 333 339 341 345 344 339 336 336
254 297 290 291 292 291 297 288 277 248 224 209 198 174 164 157 155 154 161 164 162 164 161 156 155 152 149 139 144 149 177 334 337 335 330 339 340 343 343 343 344 342 336 336
271 287 289 292 286 281 289 276 270 242 225 184 176 164 155 147 153 164 164 165 158 155 152 149 143 144 137 126 141 137 222 317 309 320 330 336 334 334 340 340 344 340 338 338
278 286 284 278 260 261 279 289 264 222 190 173 168 157 153 150 156 161 160 160 147 147 144 139 136 134 120 123 133 304 284 320 329 329 333 337 337 337 337 334 333 336 337 335
298 301 262 270 269 264 271 268 201 177 170 164 165 157 161 160 151 155 151 145 142 142 139 134 132 130 121 65 318 312 310 323 332 339 338 342 341 340 333 325 328 330 331 333
315 306 263 273 242 249 223 183 165 155 160 161 163 160 153 146 141 143 142 144 148 145 135 128 130 127 97 17 341 126 348 340 335 342 342 340 341 337 324 327 330 332 333 336
290 288 299 161 170 155 148 148 150 155 158 160 149 145 145 140 141 144 143 141 136 125 126 127 131 121 84 82 112 42 351 348 346 349 343 341 343 338 328 331 334 333 334 340
304 298 315 34 122 130 128 128 133 138 142 147 144 143 145 142 142 141 143 137 134 131 139 131 129 108 103 139 65 351 354 349 358 356 348 347 352 343 339 337 337 338 343 350
344 348 95 102 121 128 131 127 125 128 136 143 134 132 137 139 142 141 148 141 143 144 141 141 132 109 104 129 334 346 347 359 358 353 354 356 355 349 344 343 347 350 358 354
338 105 117 106 121 133 124 131 122 117 119 131 147 157 150 148 147 151 145 137 130 137 140 133 113 111 108 95 6 343 358 0 355 1 357 354 354 352 352 355 355 2 359 359
15 335 155 124 127 127 130 143 156 156 166 168 163 161 157 154 154 148 138 137 147 148 135 116 122 118 115 359 352 0 357 3 4 1 354 356 357 359 360 358 1 5 360 0
59 83 166 132 144 160 162 171 164 172 172 168 164 158 156 152 144 142 152 153 147 141 129 130 130 128 114 359 2 357 2 12 1 355 357 1 2 3 1 360 6 4 1 3
77 96 101 104 94 103 129 158 168 177 167 162 158 154 149 152 155 151 154 151 152 143 131 127 130 141 131 48 0 8 19 11 358 1 4 6 7 5 2 4 6 5 5 7
131 46 153 192 193 198 209 169 169 171 166 159 154 152 148 147 149 152 147 145 149 141 141 132 132 123 102 18 18 22 23 8 5 8 8 11 9 7 5 10 11 9 8 10
67 160 161 143 141 166 174 168 171 163 159 154 152 150 148 149 148 146 148 143 147 149 146 140 135 130 55 33 34 27 20 12 15 13 13 14 12 10 12 15 12 10 12 14
76 95 162 165 172 173 163 166 176 168 162 163 162 162 154 152 151 149 147 141 137 139 149 140 135 117 59 43 38 24 19 15 18 17 15 14 14 14 14 17 14 12 16 20
97 101 119 137 144 151 158 172 175 168 169 171 163 163 162 155 157 152 147 145 148 146 139 134 129 93 57 44 35 20 19 15 20 19 14 12 13 15 15 19 16 15 21 26